Погода в Красноярово

Россия / Амурская область     51°27′18″N   128°26′13″E
темп.,
°C
ветер,
м/с
пор.,
м/с
влажн.,
%
обл.,
%
осадки,
мм/ч
давл.,
гПа
погр.,
м
17 апреля, сб
сб1700:00+1ссв3874100 0.0 1011195
03:000ссв396513 0.0 1011210
06:00−1с397299 0.0 1012228
09:00+5ссв46457 0.0 1012718
12:00+10с333218 0.0 10121405
15:00+11сз22295 0.0 10101736
18:00+11зсз22281 0.0 10101583
21:00+7ююз22390 0.0 101222
18 апреля, вс
вс1800:00+4ююз35813 0.0 101298
03:00+2ююз33720 0.0 101241
06:00+1ю34730 0.0 101170
09:00+8ю57460 0.0 1011521
12:00+13ю56290 0.0 10091156
15:00+15ю56295 0.0 10061477
18:00+14ю553440 0.0 10051247
21:00+9ююв49525 0.0 1005168
19 апреля, пн
пн1900:00+7ююв38642 0.0 1005144
03:00+5ююв387076 0.0 1004127
06:00+4юз35755 0.0 1003110
09:00+4сз9114897 0.0 1006901
12:00+4сз1012331 0.1 10081494
15:00+5сз1114230 0.1 10082128
18:00+2сз1016251 0.0 10102223
21:00−1сз916320 0.0 10111785
20 апреля, вт
вт2000:00−3зсз1019351 0.0 10101616
03:00−4сз1019375 0.0 10101450
06:00−4сз816370 0.0 10111065
09:000сз811280 0.0 10121060
12:00+7сз710170 0.0 10121415
15:00+11зсз79105 0.0 10111446
18:00+11зсз36175 0.0 10111266
21:00+6вюв332598 0.0 101232
21 апреля, ср
ср2100:00+4юв373181 0.0 1011107
03:00+3в3445100 0.0 101156
06:00+2всв3645100 0.0 1012155
09:00+4св5844100 0.1 1013258
12:00+5в4466100 1.3 1015326
15:00+10всв44535 1.3 1014743
18:00+12в45350 0.0 10151030
21:00+6всв335960 0.0 101630